Caro, MI

2:41 PM EDT on April 23, 2018 (GMT -0400)
Caro

Weather History for KCFS - March, 2013

Change the Weather History Date:

Tuesday, March 26, 2013

  Actual Average (KMBS) Record (KMBS)
Temperature  
Mean Temperature 38 °F -  
Max Temperature 45 °F 45 °F 75 °F (2007)
Min Temperature 32 °F 29 °F 9 °F (2014)
Degree Days  
Heating Degree Days 26    
Moisture  
Dew Point 29 °F    
Average Humidity 73    
Maximum Humidity 85    
Minimum Humidity 48    
Precipitation  
Precipitation 0.00 in - - ()
Sea Level Pressure  
Sea Level Pressure 29.99 in    
Wind  
Wind Speed 8 mph (WNW)    
Max Wind Speed 16 mph    
Max Gust Speed 17 mph    
Visibility 10 miles    
Events      
Averages and records for this station are not official NWS values.
T = Trace of Precipitation, MM = Missing Value Source: NWS Daily Summary

Daily Weather History Graph

Daily Weather History Graph

Search for Another Location

Airport or City:

Astronomy

Mar. 26, 2013 Rise Set
Actual Time 7:25 AM EDT 7:53 PM EDT
Civil Twilight 6:57 AM EDT 8:22 PM EDT
Nautical Twilight 6:23 AM EDT 8:56 PM EDT
Astronomical Twilight 5:48 AM EDT 9:31 PM EDT
Moon 7:29 PM EDT (3/26) 6:42 AM EDT (3/26)
Length of Visible Light 13h 25m
Length of Day
12h 27m
Waxing Gibbous, 99% of the Moon is Illuminated
Mar 26
Waxing Gibbous
Mar 27
Full
Apr 3
Last Quarter
Apr 10
New
Apr 18
First Quarter

Hourly Weather History & Observations

Time (EDT) Temp. Windchill Dew Point Humidity Pressure Visibility Wind Dir Wind Speed Gust Speed Precip Events Conditions
12:14 AM 34.2 °F 29.0 °F 27.5 °F 77% 29.91 in 10.0 mi NNW 5.8 mph - N/A   Overcast
12:35 AM 34.3 °F 29.2 °F 27.5 °F 76% 29.91 in 10.0 mi NNW 5.8 mph - N/A   Overcast
12:54 AM 34.3 °F 28.4 °F 27.5 °F 76% 29.91 in 10.0 mi NNW 6.9 mph - N/A   Overcast
1:14 AM 34.5 °F 27.9 °F 27.3 °F 75% 29.91 in 10.0 mi NW 8.1 mph - N/A   Overcast
1:34 AM 34.3 °F 26.5 °F 27.1 °F 75% 29.91 in 10.0 mi NW 10.4 mph - N/A   Overcast
1:54 AM 34.3 °F 26.5 °F 27.3 °F 76% 29.92 in 10.0 mi NW 10.4 mph 16.1 mph N/A   Overcast
2:15 AM 34.2 °F 26.8 °F 27.3 °F 76% 29.92 in 10.0 mi NW 9.2 mph - N/A   Overcast
2:34 AM 34.2 °F 26.8 °F 27.3 °F 76% 29.92 in 10.0 mi NNW 9.2 mph - N/A   Overcast
2:54 AM 34.2 °F 26.2 °F 27.3 °F 76% 29.92 in 10.0 mi NW 10.4 mph - N/A   Overcast
3:14 AM 34.0 °F 26.6 °F 27.5 °F 77% 29.92 in 10.0 mi NNW 9.2 mph - N/A   Overcast
3:34 AM 34.0 °F 25.5 °F 27.9 °F 78% 29.92 in 10.0 mi NW 11.5 mph - N/A   Overcast
3:55 AM 33.8 °F 25.8 °F 28.0 °F 79% 29.92 in 10.0 mi NW 10.4 mph - N/A   Overcast
4:14 AM 33.8 °F 25.8 °F 28.2 °F 80% 29.92 in 10.0 mi NW 10.4 mph 16.1 mph N/A   Overcast
4:34 AM 33.4 °F 25.9 °F 28.4 °F 82% 29.93 in 10.0 mi NW 9.2 mph - N/A   Overcast
4:54 AM 33.4 °F 27.3 °F 28.4 °F 82% 29.93 in 10.0 mi NW 6.9 mph - N/A   Overcast
5:14 AM 33.1 °F 26.9 °F 28.4 °F 83% 29.93 in 10.0 mi NW 6.9 mph - N/A   Overcast
5:35 AM 32.9 °F 25.9 °F 28.4 °F 84% 29.93 in 10.0 mi NW 8.1 mph - N/A   Overcast
5:54 AM 32.7 °F 25.7 °F 28.4 °F 84% 29.94 in 10.0 mi NW 8.1 mph - N/A   Overcast
6:14 AM 32.4 °F 26.0 °F 28.2 °F 85% 29.94 in 10.0 mi NW 6.9 mph - N/A   Overcast
6:35 AM 32.4 °F 26.9 °F 28.4 °F 85% 29.95 in 10.0 mi NW 5.8 mph - N/A   Overcast
6:54 AM 32.4 °F 26.0 °F 28.4 °F 85% 29.95 in 10.0 mi WNW 6.9 mph - N/A   Overcast
7:14 AM 32.4 °F 26.0 °F 28.2 °F 85% 29.96 in 10.0 mi WNW 6.9 mph - N/A   Overcast
7:35 AM 32.5 °F 26.2 °F 28.4 °F 85% 29.96 in 10.0 mi WNW 6.9 mph - N/A   Overcast
7:54 AM 32.9 °F 25.9 °F 28.4 °F 84% 29.97 in 10.0 mi WNW 8.1 mph - N/A   Overcast
8:14 AM 33.1 °F 26.1 °F 28.4 °F 83% 29.98 in 10.0 mi WNW 8.1 mph - N/A   Overcast
8:35 AM 33.6 °F 26.2 °F 28.8 °F 82% 29.98 in 7.0 mi WNW 9.2 mph - N/A   Overcast
8:54 AM 34.0 °F 27.2 °F 28.8 °F 81% 29.99 in 10.0 mi WNW 8.1 mph - N/A   Overcast
9:11 AM 34.2 °F 29.0 °F 28.8 °F 81% 29.99 in 3.0 mi WNW 5.8 mph - N/A   Haze
9:34 AM 36.0 °F 29.6 °F 30.0 °F 79% 30.00 in 10.0 mi NW 8.1 mph - N/A   Overcast
9:54 AM - - - N/A% - - North - - N/A   Unknown
10:15 AM 37.4 °F 29.8 °F 29.3 °F 73% 30.00 in 10.0 mi NW 11.5 mph - N/A   Overcast
10:35 AM 36.5 °F 29.7 °F 29.3 °F 75% 30.01 in 10.0 mi NW 9.2 mph - N/A   Overcast
10:55 AM 36.7 °F 29.9 °F 29.3 °F 75% 30.02 in 10.0 mi NNW 9.2 mph - N/A   Overcast
11:15 AM 37.6 °F 31.0 °F 29.5 °F 73% 30.02 in 10.0 mi NW 9.2 mph - N/A   Overcast
11:35 AM 38.3 °F 32.5 °F 29.8 °F 72% 30.02 in 10.0 mi WNW 8.1 mph - N/A   Overcast
11:55 AM 39.4 °F 33.2 °F 30.6 °F 71% 30.02 in 10.0 mi NNW 9.2 mph - N/A   Overcast
12:15 PM 41.2 °F 35.5 °F 30.0 °F 65% 30.02 in 10.0 mi North 9.2 mph 16.1 mph N/A   Scattered Clouds
12:35 PM 41.5 °F 35.9 °F 30.0 °F 64% 30.02 in 10.0 mi NNW 9.2 mph - N/A   Scattered Clouds
12:55 PM 41.5 °F 35.4 °F 30.6 °F 65% 30.02 in 10.0 mi NNW 10.4 mph 17.3 mph N/A   Scattered Clouds
1:14 PM 41.4 °F 35.2 °F 30.4 °F 65% 30.02 in 10.0 mi NW 10.4 mph - N/A   Mostly Cloudy
1:35 PM 41.5 °F 35.4 °F 29.5 °F 62% 30.02 in 10.0 mi NW 10.4 mph - N/A   Mostly Cloudy
1:55 PM 42.4 °F 37.0 °F 27.1 °F 55% 30.02 in 10.0 mi WNW 9.2 mph - N/A   Mostly Cloudy
2:14 PM 42.4 °F 36.1 °F 27.9 °F 56% 30.02 in 10.0 mi NNW 11.5 mph - N/A   Overcast
2:35 PM 42.8 °F 37.0 °F 27.3 °F 54% 30.02 in 10.0 mi NW 10.4 mph - N/A   Overcast
2:55 PM 41.9 °F 37.5 °F 26.8 °F 55% 30.01 in 10.0 mi WNW 6.9 mph - N/A   Overcast
3:14 PM 45.1 °F 42.0 °F 28.2 °F 52% 30.00 in 10.0 mi NNW 5.8 mph - N/A   Overcast
3:35 PM 43.5 °F 38.9 °F 25.2 °F 48% 30.00 in 10.0 mi NNW 8.1 mph - N/A   Overcast
3:55 PM 42.6 °F 37.2 °F 30.0 °F 61% 30.00 in 10.0 mi WNW 9.2 mph - N/A   Overcast
4:15 PM 42.8 °F 37.0 °F 28.8 °F 58% 30.00 in 10.0 mi WNW 10.4 mph - N/A   Overcast
4:35 PM 43.9 °F 38.3 °F 28.4 °F 55% 30.00 in 10.0 mi WNW 10.4 mph - N/A   Mostly Cloudy
4:55 PM 43.0 °F 36.4 °F 28.6 °F 57% 30.01 in 10.0 mi WNW 12.7 mph - N/A   Mostly Cloudy
5:15 PM 42.4 °F 36.5 °F 28.4 °F 58% 30.01 in 10.0 mi West 10.4 mph - N/A   Overcast
5:35 PM 42.3 °F 37.3 °F 28.2 °F 58% 30.01 in 10.0 mi WNW 8.1 mph - N/A   Overcast
5:55 PM 41.0 °F 32.8 °F 31.1 °F 68% 30.02 in 10.0 mi West 16.1 mph - N/A   Overcast
6:15 PM 39.4 °F 32.3 °F 31.5 °F 73% 30.02 in 10.0 mi West 11.5 mph - N/A   Overcast
6:35 PM 39.7 °F 34.3 °F 30.7 °F 70% 30.02 in 10.0 mi WSW 8.1 mph - N/A   Overcast
6:55 PM 37.2 °F 30.0 °F 29.5 °F 74% 30.03 in 10.0 mi WSW 10.4 mph - N/A   Mostly Cloudy
7:15 PM 36.7 °F 30.5 °F 30.2 °F 77% 30.03 in 10.0 mi WSW 8.1 mph - N/A   Overcast
7:35 PM 36.3 °F 30.1 °F 30.7 °F 80% 30.04 in 10.0 mi WSW 8.1 mph - N/A   Overcast
7:54 PM 35.8 °F 30.9 °F 30.7 °F 82% 30.04 in 10.0 mi West 5.8 mph - N/A   Overcast
8:15 PM 35.6 °F 30.7 °F 30.0 °F 80% 30.04 in 10.0 mi WSW 5.8 mph - N/A   Overcast
8:35 PM 35.6 °F 29.9 °F 30.2 °F 81% 30.05 in 10.0 mi WSW 6.9 mph - N/A   Overcast
8:55 PM 35.6 °F 30.7 °F 30.2 °F 81% 30.05 in 10.0 mi West 5.8 mph - N/A   Overcast
9:15 PM 35.6 °F 30.7 °F 30.2 °F 81% 30.06 in 10.0 mi West 5.8 mph - N/A   Overcast
9:35 PM 35.2 °F 31.2 °F 30.0 °F 81% 30.06 in 10.0 mi West 4.6 mph - N/A   Overcast
9:55 PM 35.2 °F 30.3 °F 29.3 °F 79% 30.06 in 10.0 mi West 5.8 mph - N/A   Overcast
10:15 PM 34.9 °F 29.9 °F 28.9 °F 79% 30.07 in 10.0 mi WNW 5.8 mph - N/A   Overcast
10:35 PM 36.0 °F 29.0 °F 26.2 °F 68% 30.07 in 10.0 mi WNW 9.2 mph - N/A   Overcast
10:55 PM 36.9 °F 30.7 °F 24.3 °F 60% 30.07 in 10.0 mi WNW 8.1 mph - N/A   Overcast
11:15 PM 36.5 °F 29.2 °F 24.4 °F 62% 30.07 in 10.0 mi WNW 10.4 mph - N/A   Overcast
11:35 PM 36.5 °F 29.2 °F 24.3 °F 61% 30.07 in 10.0 mi WNW 10.4 mph - N/A   Overcast
11:55 PM 36.1 °F 29.3 °F 23.9 °F 61% 30.07 in 10.0 mi WNW 9.2 mph - N/A   Overcast